Jackson Hawkins Field, MS

2:57 PM CDT on March 29, 2017 (GMT -0500)
Hawkins

Weather History for KHKS - December, 2012

Change the Weather History Date:

Monday, December 24, 2012

  Actual Average (KJAN) Record (KJAN)
Temperature  
Mean Temperature 58 °F -  
Max Temperature 68 °F 54 °F 83 °F (2015)
Min Temperature 48 °F 35 °F 6 °F (1989)
Degree Days  
Heating Degree Days 7    
Growing Degree Days 8 (Base 50)    
Moisture  
Dew Point 54 °F    
Average Humidity 80    
Maximum Humidity 94    
Minimum Humidity 36    
Precipitation  
Precipitation 0.00 in - - ()
Sea Level Pressure  
Sea Level Pressure 29.87 in    
Wind  
Wind Speed 7 mph (West)    
Max Wind Speed 14 mph    
Max Gust Speed 22 mph    
Visibility 9 miles    
Events      
Averages and records for this station are not official NWS values.
T = Trace of Precipitation, MM = Missing Value Source: NWS Daily Summary

Daily Weather History Graph

Daily Weather History Graph

Search for Another Location

Airport or City:

Trip Planner

Search our weather history database for the weather conditions in past years. The results will help you decide how hot, cold, wet, or windy it might be!

Date:

Astronomy

Dec. 24, 2012 Rise Set
Actual Time 6:59 AM CST 5:01 PM CST
Civil Twilight 6:32 AM CST 5:28 PM CST
Nautical Twilight 6:01 AM CST 5:59 PM CST
Astronomical Twilight 5:32 AM CST 6:29 PM CST
Moon 2:25 PM CST (12/24) 3:42 AM CST (12/24)
Length of Visible Light 10h 56m
Length of Day
10h 02m
Waxing Gibbous, 88% of the Moon is Illuminated
Dec 24
Waxing Gibbous
Dec 28
Full
Jan 4
Last Quarter
Jan 11
New
Jan 18
First Quarter

Hourly Weather History & Observations

Time (CST) Temp. Dew Point Humidity Pressure Visibility Wind Dir Wind Speed Gust Speed Precip Events Conditions
12:53 AM 60.1 °F 55.9 °F 86% 29.87 in 10.0 mi South 9.2 mph - N/A   Scattered Clouds
1:53 AM 59.0 °F 55.9 °F 90% 29.86 in 10.0 mi SSE 6.9 mph - N/A   Mostly Cloudy
2:53 AM 60.1 °F 57.0 °F 90% 29.85 in 10.0 mi South 5.8 mph - N/A   Overcast
3:53 AM 62.1 °F 57.9 °F 86% 29.82 in 10.0 mi South 6.9 mph - N/A   Overcast
4:10 AM 62.6 °F 59.0 °F 88% 29.84 in 10.0 mi South 4.6 mph - N/A   Overcast
4:53 AM 63.0 °F 60.1 °F 90% 29.82 in 10.0 mi WSW 5.8 mph - 0.00 in   Overcast
5:28 AM 64.4 °F 60.8 °F 88% 29.85 in 10.0 mi WSW 6.9 mph - N/A   Mostly Cloudy
5:44 AM 62.6 °F 60.8 °F 94% 29.85 in 10.0 mi SW 6.9 mph - N/A   Mostly Cloudy
5:53 AM 63.0 °F 60.1 °F 90% 29.84 in 10.0 mi WSW 9.2 mph - N/A   Scattered Clouds
6:41 AM 62.6 °F 60.8 °F 94% 29.87 in 10.0 mi WSW 6.9 mph - N/A   Mostly Cloudy
6:53 AM 63.0 °F 60.1 °F 90% 29.86 in 10.0 mi West 6.9 mph - N/A   Mostly Cloudy
7:04 AM 62.6 °F 60.8 °F 94% 29.88 in 10.0 mi WSW 6.9 mph - N/A   Mostly Cloudy
7:17 AM 62.6 °F 60.8 °F 94% 29.88 in 9.0 mi West 8.1 mph - N/A   Mostly Cloudy
7:30 AM 62.6 °F 60.8 °F 94% 29.89 in 9.0 mi West 6.9 mph - N/A   Mostly Cloudy
7:40 AM 62.6 °F 60.8 °F 94% 29.88 in 8.0 mi West 5.8 mph - N/A   Mostly Cloudy
7:53 AM 63.0 °F 61.0 °F 93% 29.86 in 8.0 mi WSW 5.8 mph - N/A   Mostly Cloudy
8:28 AM 62.6 °F 60.8 °F 94% 29.90 in 10.0 mi WNW 9.2 mph - N/A   Overcast
8:45 AM 64.4 °F 59.0 °F 83% 29.90 in 10.0 mi West 11.5 mph - N/A   Mostly Cloudy
8:53 AM 64.0 °F 59.0 °F 84% 29.89 in 10.0 mi West 11.5 mph - N/A   Mostly Cloudy
9:19 AM 64.4 °F 55.4 °F 73% 29.92 in 10.0 mi West 13.8 mph 21.9 mph N/A   Scattered Clouds
9:53 AM 66.0 °F 48.9 °F 54% 29.91 in 10.0 mi West 12.7 mph - N/A   Clear
10:53 AM 66.9 °F 41.0 °F 39% 29.91 in 10.0 mi WNW 12.7 mph - N/A   Clear
11:53 AM 66.9 °F 39.0 °F 36% 29.90 in 10.0 mi West 6.9 mph - N/A   Clear
12:53 PM 66.9 °F 43.0 °F 42% 29.89 in 10.0 mi NNW 8.1 mph - N/A   Clear
1:53 PM 68.0 °F 46.0 °F 45% 29.87 in 10.0 mi NW 6.9 mph - N/A   Clear
2:53 PM 66.9 °F 46.0 °F 47% 29.86 in 10.0 mi North 3.5 mph - N/A   Clear
3:53 PM 66.9 °F 48.9 °F 52% 29.87 in 10.0 mi North 5.8 mph - N/A   Clear
4:53 PM 62.1 °F 51.1 °F 67% 29.88 in 10.0 mi North 3.5 mph - N/A   Clear
5:53 PM 59.0 °F 51.1 °F 75% 29.88 in 10.0 mi NNE 3.5 mph - N/A   Clear
6:53 PM 55.9 °F 51.1 °F 84% 29.89 in 10.0 mi Calm Calm - N/A   Clear
7:53 PM 54.0 °F 50.0 °F 86% 29.88 in 9.0 mi NE 3.5 mph - N/A   Clear
8:53 PM 51.1 °F 48.9 °F 92% 29.88 in 6.0 mi Calm Calm - N/A   Clear
9:53 PM 50.0 °F 48.0 °F 93% 29.88 in 4.0 mi Calm Calm - N/A   Clear
10:53 PM 48.0 °F 46.0 °F 93% 29.88 in 4.0 mi Calm Calm - N/A   Clear
11:53 PM 51.1 °F 48.9 °F 92% 29.88 in 6.0 mi East 3.5 mph - N/A   Clear